Tracking 25405 objects as of 26-Jan-2022
HD Live streaming from Space Station
objects crossing your sky now

FLOCK 1C 5

Track FLOCK 1C 5 now!
10-day predictions
FLOCK 1C 5 is classified as:


NORAD ID: 40038
Int'l Code: 2014-033AE
Perigee: 590.2 km
Apogee: 610.3 km
Inclination: 98.0 °
Period: 96.5 minutes
Semi major axis: 6971 km
RCS: Unknown
Launch date: June 19, 2014
Source: United States (US)
Launch site: Orenburg, Russia (OREN)
aabbcc
Your satellite tracking list
Your tracking list is empty




NASA's NSSDC Master Catalog

Two Line Element Set (TLE):
1 40038U 14033AE  22026.37620348  .00002082  00000-0  21325-3 0  9999
2 40038  97.9949 332.8336 0014452 143.1333 217.0881 14.91550103412829
Source of the keplerian elements: AFSPC